Regional Weather Roundup
Issued by NWS

Home | Current Version | Previous Version | Graphics & Text | Print | Product List | Glossary On
Versions: 1 2 3 4 5 6 7 8 9 10 11 12 13 14 15 16 17 18 19 20 21 22 23 24 25 26 27 28 29 30 31 32 33 34 35 36 37 38 39 40 41 42 43 44 45 46 47 48 49 50
000
ASUS44 KMEG 170310
RWRTN
TENNESSEE HOURLY STATE WEATHER ROUNDUP
NATIONAL WEATHER SERVICE MEMPHIS TN
1000 PM CDT WED APR 16 2014

TNZ002-004-019-021-049-052-054-088>092-170400-
WEST TENNESSEE

CITY           SKY/WX    TMP DP  RH WIND       PRES   REMARKS
MEMPHIS INTL   PTCLDY    52  33  48 CALM      30.15R
NWS MEMPHIS      N/A     48 N/A N/A MISG        N/A
JACKSON        PTCLDY    47  30  51 SE5       30.16R
DYERSBURG      PTCLDY    46  30  53 CALM      30.17R
UNION CITY     CLEAR     43  36  75 CALM      30.16R
PARIS          PTCLDY    45  30  55 E3        30.17R
LEXINGTON      CLEAR     48  30  49 CALM      30.17R
SAVANNAH       PTCLDY    43  38  82 CALM      30.18R
$$

TNZ008-025-027-028-033-062-065-066-170400-
NORTH MIDDLE TENNESSEE

CITY           SKY/WX    TMP DP  RH WIND       PRES   REMARKS
NASHVILLE      PTCLDY    47  32  56 CALM      30.21R
DICKSON        PTCLDY    48  28  46 CALM      30.18R
PORTLAND       MOCLDY    43  34  70 CALM      30.20R
CLARKSVILLE    PTCLDY    46  30  53 SE5       30.19R
SMYRNA         CLEAR     43  35  73 CALM      30.22R
MURFREESBORO   PTCLDY    50  34  54 CALM      30.20R
COOKEVILLE     CLEAR     43  32  65 CALM      30.22R
LIVINGSTON     CLEAR     50  27  41 S7        30.22R
GALLATIN       PTCLDY    45  34  65 CALM      30.20S
CROSSVILLE     CLEAR     46  28  49 CALM      30.24R
$$

TNZ061-075-076-078-094-096-097-170400-
SOUTH MIDDLE TENNESSEE

CITY           SKY/WX    TMP DP  RH WIND       PRES   REMARKS
LEWISBURG      PTCLDY    41  35  79 CALM      30.20R
FAYETTEVILLE   CLEAR     46  32  58 SE7       30.21R
TULLAHOMA      CLEAR     54  27  35 S6        30.22R
WINCHESTER     CLEAR     54  28  37 SE10      30.23R
MCMINNVILLE    CLEAR     46  30  53 CALM      30.22R
COLUMBIA       CLEAR     46  37  71 CALM      30.18R
SHELBYVILLE    PTCLDY    43  37  81 SE3       30.22R
$$

TNZ017-018-042-046-047-170400-
NORTHEAST TENNESSEE

CITY           SKY/WX    TMP DP  RH WIND       PRES   REMARKS
TRI CITIES     PTCLDY    49  18  29 E12G17    30.30R
ELIZABETHTON   CLEAR     45  19  36 CALM      30.32R
$$

TNZ012-013-036-069-073-074-170400-
CENTRAL EAST TENNESSEE

CITY           SKY/WX    TMP DP  RH WIND       PRES   REMARKS
KNOXVILLE      PTCLDY    47  31  53 CALM      30.25R
OAK RIDGE      CLEAR     45  33  63 CALM      30.26S
$$

TNZ083-085-099-170400-
SOUTHEAST TENNESSEE

CITY           SKY/WX    TMP DP  RH WIND       PRES   REMARKS
CHATTANOOGA    CLEAR     56  26  31 SE7       30.27R
$$

SKY/WX REPORTED AS FAIR MEANS FEW OR NO CLOUDS BELOW
12 THOUSAND FEET.




USA.gov is the U.S. government's official web portal to all federal, state and local government web resources and services.